Tracking 18844 objects as of 21-Nov-2017
HD Live streaming from Space Station
objects crossing your sky now

OPS 9317 (IDSCS 7)

Track OPS 9317 (IDSCS 7) now!
OPS 9317 (IDSCS 7) is classified as:


NORAD ID: 2221
Int'l Code: 1966-053H
Perigee: 33,730.3 km
Apogee: 34,349.8 km
Inclination: 2.6 °
Period: 1,347.4 minutes
Semi major axis: 40411 km
RCS: 0.2512 m2 (medium)
Launch date: June 16, 1966
Source: United States (US)
Launch site: AIR FORCE EASTERN TEST RANGE (AFETR)
aabbcc
Your satellite tracking list
Your tracking list is empty




NASA's NSSDC Master Catalog

Two Line Element Set (TLE):
1 02221U 66053H   17312.19667295 -.00000083  00000-0  00000+0 0  9997
2 02221   2.6134  59.1527 0076647  98.5283  89.2433  1.06869387200389
Source of the keplerian elements: AFSPC